Simultaneous Nadir Overpasses (SNOs) Predictions

Prediction of SNOs between AURA and NPP Satellite Orbit:

Table of predicted SNOs for the next 14.0 days since TLE Epoch: 6/6/2015
Index Date (AURA) Time (AURA) Lat,Lon (AURA) SZA (AURA ) Date (NPP) Time (NPP) Lat,Lon (NPP) SZA (NPP ) Distance(km) Time Diff (sec)
1 06/07/2015 08:57:51 78.55, -63.27 71.33 06/07/2015 08:57:31 78.55, -63.23 71.33 0.87 20
2 06/07/2015 09:47:08 -78.97, 106.72 109.26 06/07/2015 09:48:05 -78.98, 106.80 109.32 1.96 57
3 06/10/2015 00:25:02 -78.13,-117.12 108.33 06/10/2015 00:23:52 -78.12,-117.22 108.26 2.34 70
4 06/10/2015 01:14:14 78.71, 53.49 70.90 06/10/2015 01:14:21 78.72, 53.52 70.89 0.73 7
5 06/12/2015 16:41:21 -78.41, 0.13 108.85 06/12/2015 16:40:38 -78.41, 0.12 108.82 0.25 43
6 06/12/2015 17:30:34 78.94, 170.63 70.44 06/12/2015 17:31:08 78.94, 170.76 70.38 2.97 34
7 06/15/2015 08:57:45 -78.49, 116.45 109.08 06/15/2015 08:57:30 -78.49, 116.37 109.05 1.83 15
8 06/15/2015 09:46:58 79.01, -73.03 70.21 06/15/2015 09:48:00 79.02, -72.97 70.16 1.28 62
9 06/18/2015 00:24:51 78.15, 63.00 71.32 06/18/2015 00:23:47 78.14, 62.88 71.39 2.78 64




NCC Satellite Simultaneous Nadir Overpasses (SNOs) Prediction Service
